Lake Hood, AK

5:52 PM AKDT on April 28, 2017 (GMT -0800)
Lake Hood

Weather History for PALH - January, 2014

Change the Weather History Date:

Friday, January 3, 2014

  Actual Average Record
Temperature  
Mean Temperature 26 °F -  
Max Temperature 30 °F 20 °F 46 °F (2005)
Min Temperature 21 °F 8 °F -18 °F (2009)
Degree Days  
Heating Degree Days 40    
Moisture  
Dew Point 27 °F    
Average Humidity 90    
Maximum Humidity 93    
Minimum Humidity 85    
Precipitation  
Precipitation 0.07 in - - ()
Sea Level Pressure  
Sea Level Pressure 30.19 in    
Wind  
Wind Speed 2 mph (NNE)    
Max Wind Speed 8 mph    
Max Gust Speed -    
Visibility 6 miles    
Events Snow    
Averages and records for this station are not official NWS values.
T = Trace of Precipitation, MM = Missing Value Source: NWS Daily Summary

Daily Weather History Graph

Daily Weather History Graph

Search for Another Location

Airport or City:

Trip Planner

Search our weather history database for the weather conditions in past years. The results will help you decide how hot, cold, wet, or windy it might be!

Date:

Astronomy

Jan. 03, 2014 Rise Set
Actual Time 10:12 AM AKST 3:57 PM AKST
Civil Twilight 9:11 AM AKST 4:57 PM AKST
Nautical Twilight 8:13 AM AKST 5:56 PM AKST
Astronomical Twilight 7:20 AM AKST 6:49 PM AKST
Moon 10:42 AM AKST (1/3) 8:27 PM AKST (1/3)
Length of Visible Light 7h 45m
Length of Day
5h 45m
Waxing Crescent, 9% of the Moon is Illuminated
Jan 3
Waxing Crescent
Jan 7
First Quarter
Jan 15
Full
Jan 23
Last Quarter
Jan 30
New

Hourly Weather History & Observations

Time (AKST) Temp. Windchill Dew Point Humidity Pressure Visibility Wind Dir Wind Speed Gust Speed Precip Events Conditions
12:24 AM 21.2 °F - 19.4 °F 93% 30.08 in 1.8 mi Calm Calm - N/A   Mostly Cloudy
12:35 AM 24.8 °F - 21.2 °F 86% 30.09 in 3.0 mi Calm Calm - N/A   Overcast
12:53 AM 21.9 °F - 19.9 °F 92% 30.10 in 2.5 mi Calm Calm - N/A   Overcast
12:58 AM 23.0 °F - 21.2 °F 93% 30.09 in 0.8 mi Calm Calm - N/A   Overcast
1:18 AM 23.0 °F - 19.4 °F 86% 30.10 in 3.0 mi Calm Calm - N/A   Overcast
1:53 AM 27.0 °F 23.0 °F 25.0 °F 92% 30.09 in 10.0 mi East 3.5 mph - N/A   Overcast
2:02 AM 26.6 °F - 24.8 °F 93% 30.10 in 10.0 mi Calm Calm - N/A   Overcast
2:24 AM 26.6 °F - 24.8 °F 93% 30.09 in 9.0 mi Calm Calm - 0.00 in   Overcast
3:53 AM 28.9 °F 23.9 °F 27.0 °F 92% 30.11 in 10.0 mi NNE 4.6 mph - N/A   Overcast
4:53 AM 30.0 °F 24.1 °F 26.1 °F 85% 30.11 in 10.0 mi North 5.8 mph - N/A   Overcast
5:53 AM 30.0 °F 26.5 °F 26.1 °F 85% 30.13 in 10.0 mi NNW 3.5 mph - N/A   Overcast
6:53 AM 30.0 °F 25.2 °F 26.1 °F 85% 30.15 in 5.0 mi NNW 4.6 mph - 0.00 in Snow Light Snow
7:17 AM 30.2 °F 26.7 °F 26.6 °F 86% 30.15 in 8.0 mi North 3.5 mph - 0.00 in Snow Light Snow
7:53 AM 30.0 °F - 26.1 °F 85% 30.16 in 10.0 mi Calm Calm - 0.00 in   Overcast
8:53 AM 30.0 °F - 26.1 °F 85% 30.18 in 4.0 mi Calm Calm - 0.01 in Snow Light Snow
9:51 AM 30.2 °F - 26.6 °F 86% 30.19 in 1.5 mi Calm Calm - 0.01 in Snow Light Snow
9:53 AM 30.0 °F - 27.0 °F 88% 30.19 in 1.5 mi Calm Calm - 0.01 in Snow Light Snow
10:53 AM 30.0 °F 24.1 °F 27.0 °F 88% 30.19 in 1.5 mi NNE 5.8 mph - 0.01 in Snow Light Snow
11:10 AM 30.2 °F 25.4 °F 26.6 °F 86% 30.19 in 2.5 mi NNE 4.6 mph - 0.00 in Snow Light Snow
11:20 AM 30.2 °F 25.4 °F 26.6 °F 86% 30.20 in 1.8 mi NNE 4.6 mph - 0.00 in Snow Light Snow
11:26 AM 30.2 °F 25.4 °F 26.6 °F 86% 30.20 in 2.0 mi NNE 4.6 mph - 0.00 in Snow Light Snow
11:53 AM 30.9 °F 27.5 °F 28.0 °F 89% 30.22 in 3.0 mi NNE 3.5 mph - 0.01 in Snow Light Snow
12:53 PM 30.9 °F - 28.0 °F 89% 30.22 in 9.0 mi Calm Calm - 0.00 in Snow Light Snow
1:16 PM 30.2 °F 25.4 °F 28.4 °F 93% 30.23 in 9.0 mi West 4.6 mph - 0.00 in   Overcast
1:30 PM 30.2 °F - 28.4 °F 93% 30.24 in 2.5 mi Calm Calm - 0.00 in Snow Light Snow
1:38 PM 30.2 °F - 28.4 °F 93% 30.24 in 0.8 mi Calm Calm - 0.00 in Snow Light Snow
1:53 PM 30.9 °F 27.5 °F 28.0 °F 89% 30.24 in 0.8 mi North 3.5 mph - 0.01 in Snow Light Snow
2:01 PM 30.2 °F - 28.4 °F 93% 30.23 in 1.0 mi Calm Calm - 0.01 in Snow Light Snow
2:15 PM 30.2 °F - 28.4 °F 93% 30.23 in 0.8 mi Calm Calm - 0.02 in Snow Light Snow
2:21 PM 30.2 °F 26.7 °F 28.4 °F 93% 30.23 in 1.2 mi East 3.5 mph - 0.02 in Snow Light Snow
2:26 PM 30.2 °F 25.4 °F 28.4 °F 93% 30.23 in 3.0 mi ENE 4.6 mph - 0.02 in Snow Light Snow
2:41 PM 30.2 °F 24.3 °F 28.4 °F 93% 30.23 in 6.0 mi NE 5.8 mph - 0.02 in Snow Light Snow
2:53 PM 30.9 °F 26.2 °F 28.0 °F 89% 30.24 in 6.0 mi NE 4.6 mph - 0.02 in Snow Light Snow
3:42 PM 30.2 °F 24.3 °F 28.4 °F 93% 30.24 in 10.0 mi NE 5.8 mph - 0.00 in   Overcast
3:53 PM 30.9 °F 23.5 °F 28.0 °F 89% 30.25 in 10.0 mi NNE 8.1 mph - 0.00 in   Overcast
4:01 PM 30.2 °F 23.4 °F 28.4 °F 93% 30.24 in 10.0 mi NNE 6.9 mph - N/A   Overcast
4:53 PM 30.0 °F 26.5 °F 28.0 °F 92% 30.26 in 2.5 mi NE 3.5 mph - 0.00 in Snow Light Snow
5:00 PM 30.2 °F 24.3 °F 28.4 °F 93% 30.25 in 6.0 mi NE 5.8 mph - 0.00 in   Overcast
5:25 PM 30.2 °F - 28.4 °F 93% 30.25 in 10.0 mi Calm Calm - 0.00 in   Overcast
5:53 PM 30.9 °F 27.5 °F 28.0 °F 89% 30.26 in 10.0 mi NNE 3.5 mph - 0.00 in   Overcast
6:53 PM 30.9 °F 26.2 °F 28.0 °F 89% 30.26 in 10.0 mi NNE 4.6 mph - N/A   Overcast
7:53 PM 30.9 °F 27.5 °F 28.0 °F 89% 30.26 in 10.0 mi NNE 3.5 mph - N/A   Overcast
8:53 PM 30.9 °F 26.2 °F 28.0 °F 89% 30.25 in 10.0 mi NNE 4.6 mph - N/A   Overcast
9:53 PM 30.0 °F - 27.0 °F 88% 30.24 in 10.0 mi Calm Calm - N/A   Overcast
10:53 PM 28.9 °F - 27.0 °F 92% 30.25 in 10.0 mi Calm Calm - N/A   Overcast
11:53 PM 28.9 °F - 27.0 °F 92% 30.25 in 10.0 mi Calm Calm - N/A   Overcast